Other Surface Observations
Issued by NWS Tucson, AZ

Home | Current Version | Previous Version | Text Only | Print | Product List | Glossary On
Versions: 1 2 3 4 5 6 7 8 9 10 11 12 13 14 15 16 17 18 19 20 21 22 23 24 25 26 27 28 29 30 31 32 33 34 35 36 37 38 39 40 41 42 43 44 45 46 47 48 49 50
006
SXUS55 KTWC 242015
OSOTWC

WEATHER ROUNDUP FOR SOUTHEAST ARIZONA
NATIONAL WEATHER SERVICE TUCSON AZ
115 PM MST FRI FEB 24 2017

AZZ504>506-514-242115-
LOCATION       SKY/WX    TMP DP  RH WIND       PRES   REMARKS
TUCSON         SUNNY     58  18  21 VRB3      30.12F
DAVIS-MONTHAN  SUNNY     56  18  22 NW9       30.11F
CHILDRENS PARK N/A      N/A N/A  23 W5                PIMA CO DEQ
ALVERNON/22ND  N/A       55 N/A N/A W6                PIMA CO DEQ
CHERRY/GLENN   N/A       57 N/A N/A W5                PIMA CO DEQ
TANGERINE      N/A       55 N/A N/A NW4               PIMA CO DEQ
CONTL RANCH    N/A       56  18  22 W6                PIMA CO DEQ
GRANT/1ST      N/A       55  17  22 W5                PIMA CO DEQ
CRAYCROFT/22ND N/A       55  17  22 N/A               PIMA CO DEQ
GOLFLINKS/KOLB N/A       54  17  23 W5                PIMA CO DEQ
AJO/12TH       N/A       56  19  23 SW5               PIMA CO DEQ
FAIRGROUNDS    N/A       53 N/A N/A N/A               PIMA CO DEQ
SAGUARO        N/A       59  19  21 SW4               *SABINO CYN
SAN CARLOS     N/A       55  21  26 S6G10             *SAN CARLOS
GREEN VALLEY   N/A       54  15  21 SE5               PIMA CO DEQ
HORSE CAMP CYN N/A       48  14  25 W10G17            *ARAVAIPA CYN
RINCON MTNS    NOT AVBL
$$

AZZ509>511-242115-
LOCATION       SKY/WX    TMP DP  RH WIND       PRES   REMARKS
SAFFORD        SUNNY     55  15  20 NW12G25   30.05F
STRAY HORSE    N/A       33  10  37 N/A               *
TRAIL CABIN    N/A       43  12  28 W7G16             *N OF GRANVILLE
BLACK HILLS    NOT AVBL
DRY LAKE       N/A       37  13  36 NW6G12            *NATANES MTNS
NOON CREEK     N/A       50  16  25 NE5G11            *PINALENO MTNS
COLUMBINE      N/A       33  -2  21 SW7G20            *PINALENO MTNS
GUTHRIE        N/A       39   4  23 W14G23            *SW OF GUTHRIE
$$

AZZ502-503-513-242115-
LOCATION       SKY/WX    TMP DP  RH WIND       PRES   REMARKS
NOGALES        SUNNY     58  12  16 W9        30.10F
SELLS          N/A       60  18  19 NE5G11            *
SASABE         N/A       57  17  21 E5G11             *ALTAR VLY
HOPKINS        N/A       49   3  15 NW9G20            *SANTA RITA MTNS
CARR CYN       N/A       55  16  21 NE3               *W OF HEREFORD
$$

AZZ507-508-512-242115-
LOCATION       SKY/WX    TMP DP  RH WIND       PRES   REMARKS
SIERRA VISTA   SUNNY     55  12  18 NW10      30.09F
DOUGLAS        SUNNY     56  13  18 MISG      30.08F
EMPIRE MTNS    NOT AVBL
MULESHOE RANCH N/A       51  14  22 NW10G17           *PRESERVE
HEADQUARTERS   NOT AVBL
$$

.............................NOTES.............................
THIS IS AN AUTOMATED COLLECTIVE WITH MINIMAL QUALITY CONTROL.
PIMA CO DEQ SITES HAVE NONSTANDARD WIND SENSOR HEIGHTS.
PIMA CO DEQ SITES DO NOT REPORT WIND GUSTS.
* INDICATES WIND SENSORS LOCATED AT 20 FEET INSTEAD OF 33 FEET.
..............................KEY..............................
SKY/WX - SKY CONDITION/WEATHER
TMP    - TEMPERATURE IN FAHRENHEIT
DP     - DEWPOINT IN FAHRENHEIT
RH     - RELATIVE HUMIDITY IN PERCENT
WIND   - DIRECTION AND SPEED IN MILES PER HOUR (MPH)
VRB    - VARIABLE WIND DIRECTION
PRES   - MEAN SEA LEVEL PRESSURE IN INCHES OF MERCURY
         F - FALLING PRESSURE   R - RISING PRESSURE
         S - STEADY PRESSURE
VSB    - VISIBILITY IN MILES
HX     - HEAT INDEX IN FAHRENHEIT
WCI    - WIND CHILL INDEX IN FAHRENHEIT
N/A    - NOT AVAILABLE
AFB    - AIR FORCE BASE
         DAVIS-MONTHAN IS DAVIS-MONTHAN AIR FORCE BASE
CYN    - CANYON
MTNS   - MOUNTAINS
NCA    - NATIONAL CONSERVATION AREA
NR     - NEAR
VLY    - VALLEY
CONTL  - CONTINENTAL
PIMA CO DEQ - PIMA COUNTY DEPT OF ENVIRONMENTAL QUALITY



USA.gov is the U.S. government's official web portal to all federal, state and local government web resources and services.